Regional Weather Roundup
Issued by NWS

Home | Current Version | Previous Version | Text Only | Print | Product List | Glossary On
Versions: 1 2 3 4 5 6 7 8 9 10 11 12 13 14 15 16 17 18 19 20 21 22 23 24 25 26 27 28 29 30 31 32 33 34 35 36 37 38 39 40 41 42 43 44 45 46 47 48 49 50
000
ASUS43 KLMK 190410
RWRKY
KENTUCKY REGIONAL WEATHER ROUNDUP
NATIONAL WEATHER SERVICE LOUISVILLE KY
1200 AM EDT SAT APR 19 2014

NOTE "FAIR" INDICATES FEW OR NO CLOUDS BELOW 12,000 FEET
WITH NO SIGNIFICANT WEATHER AND/OR OBSTRUCTIONS TO VISIBILITY.

KYZ001>023-026-027-061>063-070>075-190500-
WESTERN AND SOUTH CENTRAL KENTUCKY

CITY           SKY/WX    TMP DP  RH WIND       PRES   REMARKS
PADUCAH        MOCLDY    57  43  59 CALM      30.20S
HENDERSON      MOCLDY    46  46 100 CALM      30.21S
OWENSBORO      MOCLDY    61  40  45 N3        30.21S
HOPKINSVILLE   CLOUDY    61  41  48 NE5       30.20S
BOWLING GREEN  MOCLDY    55  46  71 CALM      30.20S
GLASGOW        MOCLDY    51  45  79 CALM      30.20S
$$

KYZ024-025-028>034-038-045-046-053-190500-
NORTH CENTRAL KENTUCKY

CITY           SKY/WX    TMP DP  RH WIND       PRES   REMARKS
LOUISVILLE/SDF MOCLDY    58  42  55 N6        30.21S
LOUISVILLE/LOU MOCLDY    59  42  53 CALM      30.22S
FORT KNOX      MOCLDY    53  41  62 N3        30.20S
$$

KYZ035>037-039>044-047>052-055>060-089>105-190500-
NORTHEAST KENTUCKY

CITY           SKY/WX    TMP DP  RH WIND       PRES   REMARKS
LEXINGTON      MOCLDY    53  40  61 NE7       30.22F
COVINGTON      CLOUDY    58  38  47 N6        30.24R
FRANKFORT      PTCLDY    49  40  71 N3        30.21S
$$

KYZ054-064>069-076>088-106>120-190500-
SOUTHEAST KENTUCKY

CITY           SKY/WX    TMP DP  RH WIND       PRES   REMARKS
JACKSON        CLOUDY    60  34  37 NE6       30.21S
LONDON         CLOUDY    57  42  57 N5        30.20S
SOMERSET       MOCLDY    57  41  54 N3        30.21S
MIDDLESBORO    CLOUDY    52  44  73 CALM      30.21F
MONTICELLO     CLOUDY    49  46  89 CALM      30.22S
$$




USA.gov is the U.S. government's official web portal to all federal, state and local government web resources and services.